South Beach, OR

6:44 PM PST on December 10, 2016 (GMT -0800)
Newport Municipal

Weather History for KONP - August, 2013

Change the Weather History Date:

Thursday, August 1, 2013

  Actual Average Record
Temperature  
Mean Temperature 56 °F -  
Max Temperature 60 °F 62 °F 68 °F (2004)
Min Temperature 53 °F 52 °F 42 °F (2002)
Degree Days  
Heating Degree Days 8    
Growing Degree Days 6 (Base 50)    
Moisture  
Dew Point 55 °F    
Average Humidity 98    
Maximum Humidity 100    
Minimum Humidity 82    
Precipitation  
Precipitation 0.04 in - - ()
Sea Level Pressure  
Sea Level Pressure 30.15 in    
Wind  
Wind Speed 6 mph (SSW)    
Max Wind Speed 12 mph    
Max Gust Speed -    
Visibility 4 miles    
Events Fog , Rain    
Averages and records for this station are not official NWS values.
T = Trace of Precipitation, MM = Missing Value Source: NWS Daily Summary

Daily Weather History Graph

Daily Weather History Graph

Search for Another Location

Airport or City:

Trip Planner

Search our weather history database for the weather conditions in past years. The results will help you decide how hot, cold, wet, or windy it might be!

Date:

Astronomy

Aug. 01, 2013 Rise Set
Actual Time 6:03 AM PDT 8:41 PM PDT
Civil Twilight 5:29 AM PDT 9:14 PM PDT
Nautical Twilight 4:47 AM PDT 9:56 PM PDT
Astronomical Twilight 3:59 AM PDT 10:43 PM PDT
Moon 1:42 AM PDT (8/1) 4:56 PM PDT (8/1)
Length of Visible Light 15h 44m
Length of Day
14h 38m
Waning Crescent, 22% of the Moon is Illuminated
Aug 1
Waning Crescent
Aug 6
New
Aug 14
First Quarter
Aug 20
Full
Aug 28
Last Quarter

Hourly Weather History & Observations

Time (PDT) Temp. Dew Point Humidity Pressure Visibility Wind Dir Wind Speed Gust Speed Precip Events Conditions
12:15 AM 53.6 °F 53.6 °F 100% 30.14 in 0.5 mi SSW 4.6 mph - N/A   Drizzle
12:35 AM 53.6 °F 53.6 °F 100% 30.14 in 0.8 mi SSW 3.5 mph - N/A Rain Light Rain
12:55 AM 53.6 °F 53.6 °F 100% 30.14 in 1.2 mi Calm Calm - N/A   Drizzle
1:15 AM 53.6 °F 53.6 °F 100% 30.14 in 3.0 mi South 3.5 mph - N/A   Light Drizzle
1:35 AM 53.6 °F 53.6 °F 100% 30.14 in 2.0 mi SSW 3.5 mph - N/A Rain Light Rain
1:55 AM 53.6 °F 53.6 °F 100% 30.14 in 0.8 mi SSW 5.8 mph - N/A   Overcast
2:15 AM 53.6 °F 53.6 °F 100% 30.14 in 0.8 mi SSW 4.6 mph - N/A   Overcast
2:35 AM 53.6 °F 53.6 °F 100% 30.14 in 0.5 mi SSW 4.6 mph - N/A Fog Fog
2:55 AM 53.6 °F 53.6 °F 100% 30.13 in 0.5 mi SSW 4.6 mph - N/A Fog Fog
3:15 AM 53.6 °F 53.6 °F 100% 30.13 in 0.5 mi SSW 3.5 mph - 0.01 in   Light Drizzle
3:35 AM 53.6 °F 53.6 °F 100% 30.12 in 0.5 mi SSW 4.6 mph - 0.01 in Fog Fog
3:55 AM 53.6 °F 53.6 °F 100% 30.12 in 0.5 mi South 3.5 mph - 0.01 in Fog Fog
4:15 AM 53.6 °F 53.6 °F 100% 30.12 in 0.5 mi South 3.5 mph - N/A Fog Fog
4:35 AM 53.6 °F 53.6 °F 100% 30.12 in 0.8 mi South 3.5 mph - N/A Rain Rain
4:55 AM 53.6 °F 53.6 °F 100% 30.12 in 2.0 mi SSW 3.5 mph - N/A   Drizzle
5:15 AM 53.6 °F 53.6 °F 100% 30.12 in 3.0 mi SSW 3.5 mph - 0.01 in   Drizzle
5:35 AM 53.6 °F 53.6 °F 100% 30.12 in 2.5 mi SSW 5.8 mph - 0.01 in   Light Drizzle
5:55 AM 53.6 °F 53.6 °F 100% 30.13 in 2.5 mi SSW 5.8 mph - 0.01 in   Heavy Drizzle
6:15 AM 53.6 °F 53.6 °F 100% 30.13 in 0.5 mi Calm Calm - N/A   Light Drizzle
6:35 AM 53.6 °F 53.6 °F 100% 30.13 in 0.2 mi SW 4.6 mph - N/A Rain Rain
6:55 AM 53.6 °F 53.6 °F 100% 30.13 in 0.2 mi SSW 5.8 mph - 0.01 in   Drizzle
7:15 AM 55.4 °F 53.6 °F 94% 30.14 in 0.5 mi SSW 5.8 mph - N/A   Light Drizzle
7:35 AM 55.4 °F 53.6 °F 94% 30.14 in - SSW 6.9 mph - N/A   Overcast
7:55 AM 55.4 °F 55.4 °F 100% 30.14 in - South 5.8 mph - N/A   Overcast
8:15 AM 55.4 °F 55.4 °F 100% 30.14 in 0.5 mi SSW 6.9 mph - N/A   Overcast
8:35 AM 55.4 °F 55.4 °F 100% 30.14 in 1.5 mi South 5.8 mph - N/A   Overcast
8:55 AM 55.4 °F 55.4 °F 100% 30.14 in 1.8 mi SSW 4.6 mph - N/A   Overcast
9:15 AM 55.4 °F 55.4 °F 100% 30.14 in 1.0 mi SSW 4.6 mph - N/A   Overcast
9:35 AM 55.4 °F 55.4 °F 100% 30.14 in 2.0 mi SSW 4.6 mph - N/A   Overcast
9:55 AM 55.4 °F 55.4 °F 100% 30.14 in 0.5 mi SSW 5.8 mph - N/A Fog Fog
10:15 AM 55.4 °F 55.4 °F 100% 30.14 in 0.2 mi SSW 6.9 mph - N/A Fog Fog
10:35 AM 55.4 °F 55.4 °F 100% 30.14 in 0.2 mi SW 9.2 mph - N/A Fog Fog
10:55 AM 55.4 °F 55.4 °F 100% 30.14 in 0.2 mi SSW 8.1 mph - N/A Fog Fog
11:15 AM 55.4 °F 55.4 °F 100% 30.15 in 0.2 mi SSW 8.1 mph - N/A Fog Fog
11:35 AM 57.2 °F 57.2 °F 100% 30.15 in 5.0 mi SW 6.9 mph - N/A   Overcast
11:55 AM 55.4 °F 55.4 °F 100% 30.16 in 1.2 mi SSW 10.4 mph - N/A   Overcast
12:15 PM 55.4 °F 55.4 °F 100% 30.16 in 0.5 mi SSW 6.9 mph - N/A Fog Fog
12:35 PM 55.4 °F 55.4 °F 100% 30.16 in 4.0 mi SSW 9.2 mph - N/A   Overcast
12:55 PM 57.2 °F 55.4 °F 94% 30.16 in 5.0 mi SSW 9.2 mph - N/A   Overcast
1:15 PM 59.0 °F 59.0 °F 100% 30.16 in 10.0 mi SW 9.2 mph - N/A   Overcast
1:35 PM 59.0 °F 57.2 °F 94% 30.17 in 10.0 mi SSW 11.5 mph - N/A   Overcast
1:55 PM 59.0 °F 55.4 °F 88% 30.18 in 4.0 mi SSW 9.2 mph - N/A   Overcast
2:15 PM 59.0 °F 55.4 °F 88% 30.18 in 10.0 mi SSW 9.2 mph - N/A   Overcast
2:35 PM 59.0 °F 55.4 °F 88% 30.18 in 10.0 mi SW 8.1 mph - N/A   Overcast
2:55 PM 60.8 °F 55.4 °F 82% 30.18 in 10.0 mi SSW 9.2 mph - N/A   Overcast
3:15 PM 59.0 °F 55.4 °F 88% 30.18 in 10.0 mi SW 8.1 mph - N/A   Overcast
3:35 PM 59.0 °F 55.4 °F 88% 30.18 in 10.0 mi SSW 8.1 mph - N/A   Overcast
3:55 PM 59.0 °F 55.4 °F 88% 30.18 in 10.0 mi SSW 10.4 mph - N/A   Overcast
4:15 PM 59.0 °F 55.4 °F 88% 30.18 in 5.0 mi SSW 10.4 mph - N/A   Overcast
4:35 PM 59.0 °F 55.4 °F 88% 30.17 in 10.0 mi SW 11.5 mph - N/A   Overcast
4:55 PM 59.0 °F 55.4 °F 88% 30.16 in 10.0 mi SSW 10.4 mph - N/A   Overcast
5:15 PM 59.0 °F 55.4 °F 88% 30.16 in 10.0 mi SSW 9.2 mph - N/A   Overcast
5:35 PM 57.2 °F 55.4 °F 94% 30.16 in 1.8 mi SSW 10.4 mph - N/A   Light Drizzle
5:55 PM 57.2 °F 55.4 °F 94% 30.16 in 5.0 mi SSW 11.5 mph - N/A   Overcast
6:15 PM 57.2 °F 55.4 °F 94% 30.16 in 0.8 mi SSW 11.5 mph - N/A Rain Light Rain
6:35 PM 55.4 °F 55.4 °F 100% 30.16 in 3.0 mi SSW 9.2 mph - N/A Rain Light Rain
6:55 PM 55.4 °F 55.4 °F 100% 30.16 in 1.8 mi SSW 9.2 mph - N/A   Overcast
7:15 PM 55.4 °F 55.4 °F 100% 30.16 in 2.0 mi SSW 9.2 mph - N/A   Overcast
7:35 PM 55.4 °F 55.4 °F 100% 30.16 in 5.0 mi SSW 8.1 mph - N/A   Overcast
7:55 PM 55.4 °F 55.4 °F 100% 30.17 in 1.8 mi SSW 8.1 mph - N/A Rain Heavy Rain
8:15 PM 55.4 °F 55.4 °F 100% 30.17 in 5.0 mi South 8.1 mph - N/A   Overcast
8:35 PM 55.4 °F 55.4 °F 100% 30.17 in 3.0 mi SSW 8.1 mph - 0.01 in   Drizzle
8:55 PM 55.4 °F 55.4 °F 100% 30.17 in 5.0 mi SSW 8.1 mph - 0.01 in   Overcast
9:15 PM 55.4 °F 55.4 °F 100% 30.17 in 7.0 mi SSW 5.8 mph - N/A   Overcast
9:35 PM 55.4 °F 55.4 °F 100% 30.17 in 5.0 mi SSW 6.9 mph - N/A   Overcast
9:55 PM 55.4 °F 55.4 °F 100% 30.18 in 10.0 mi South 6.9 mph - N/A   Overcast
10:15 PM 55.4 °F 55.4 °F 100% 30.18 in 5.0 mi SSW 5.8 mph - N/A   Overcast
10:35 PM 55.4 °F 55.4 °F 100% 30.18 in 7.0 mi South 5.8 mph - N/A   Overcast
10:55 PM 55.4 °F 55.4 °F 100% 30.18 in 10.0 mi South 4.6 mph - N/A   Overcast
11:15 PM 55.4 °F 55.4 °F 100% 30.17 in 10.0 mi South 4.6 mph - N/A   Overcast
11:35 PM 55.4 °F 55.4 °F 100% 30.17 in 10.0 mi SSW 4.6 mph - N/A   Overcast
11:55 PM 55.4 °F 55.4 °F 100% 30.16 in 10.0 mi SSW 5.8 mph - N/A   Overcast